Flight Track Log - Related Links

Times and Time Zones

All times are in EDT time to prevent confusion due to time zone crossing. See the FEX100 flight status page for this flight to view local times or setup timezone preferences in your user account.

Time Position Orientation Groundspeed Altitude Reporting Facility
EDT Latitude Longitude Course Direction KTS MPH feet Rate Location/Type
Fri 05:48:29 PM 46.4667 -84.5000 296° West 10 12 600  Level Toronto Center
Fri 05:49:29 PM 46.4833 -84.5500 296° West 130 150 1,500 1,342 Climbing Toronto Center
Fri 05:51:10 PM 46.5000 -84.5000 64° Northeast 150 173 4,200 1,677 Climbing Toronto Center
Fri 05:52:10 PM 46.4833 -84.4333 110° East 160 184 6,000 1,800 Climbing Toronto Center
Fri 05:53:10 PM 46.4833 -84.3833 90° East 160 184 7,800 1,700 Climbing Toronto Center
Fri 05:54:10 PM 46.4667 -84.3000 106° East 170 196 9,400 1,450 Climbing Toronto Center
Fri 05:55:10 PM 46.4833 -84.2333 70° East 170 196 10,700 800 Climbing Toronto Center
Fri 05:56:10 PM 46.4667 -84.1667 110° East 200 230 11,000 150 Climbing Toronto Center
Fri 05:57:10 PM 46.4667 -84.0667 90° East 230 265 11,000  Level Toronto Center
Fri 05:58:10 PM 46.4500 -83.9667 104° East 240 276 11,000  Level Toronto Center
Fri 05:59:10 PM 46.4333 -83.8667 104° East 240 276 11,000  Level Toronto Center
Fri 06:00:10 PM 46.4500 -83.7667 76° East 240 276 11,000  Level Toronto Center
Fri 06:01:10 PM 46.4333 -83.6667 104° East 250 288 11,000  Level Toronto Center
Fri 06:02:10 PM 46.4333 -83.5833 90° East 250 288 11,000  Level Toronto Center
Fri 06:03:10 PM 46.4167 -83.4833 104° East 250 288 11,000  Level Toronto Center
Fri 06:04:10 PM 46.4167 -83.3833 90° East 250 288 11,000 -450 Level Toronto Center
Fri 06:05:10 PM 46.4167 -83.2667 90° East 250 288 10,100 -1,350 Descending Toronto Center
Fri 06:06:10 PM 46.4000 -83.1667 104° East 280 322 8,300 -1,750 Descending Toronto Center
Fri 06:07:10 PM 46.3833 -83.0333 100° East 280 322 6,600 -1,450 Descending Toronto Center
Fri 06:08:10 PM 46.3667 -82.9500 106° East 280 322 5,400 -1,250 Descending Toronto Center
Fri 06:09:10 PM 46.3500 -82.8500 104° East 270 311 4,100 -1,300 Descending Toronto Center
Fri 06:11:00 PM 46.3500 -82.7002 90° East  Level FlightAware Approximate
Fri 06:18:00 PM 46.3514 -82.5614 90° East  Level Estimated

Login

Don't have an account? Register now (free) for customized features, flight alerts, and more!